Flag for Brazil Weather past 2 weeks in Niterói, Rio de Janeiro, Brazil

Now
82 °F

Partly sunny.


Feels Like: 88 °F
Forecast: N/A
Wind: 18 mph from South

Location: Rio De Janeiro Airport

Current Time: Feb 28, 2015 at 5:51:58 PM

Latest Report: Feb 28, 2015 at 5:00 PM


Visibility: N/A

Pressure: 29.89 "Hg

Humidity: 74%

Dew point: 73 °F

Location of NiteróiLocation

Historic Weather in Niterói — Graph

°F

Niterói temperature yesterday

Maximum temperature yesterday: 95 °F (at 12:00 PM)
Minimum temperature yesterday: 77 °F (at 6:00 AM)
Average temperature yesterday: 85 °F

Past Weeks' High & Low Weather Summary

 TemperatureHumidityPressure
High102 °F (Feb 20, 1:00 PM)94% (Feb 15, 11:00 PM)30.07 "Hg (Feb 15, 11:00 PM)
Low73 °F (Feb 15, 9:00 PM)35% (Feb 20, 1:00 PM)29.74 "Hg (Feb 15, 5:00 PM)
Average86 °F70%29.90 "Hg
* Reported Feb 13 6:00 PM — Feb 28 5:00 PM, Niterói, Weather by CustomWeather, © 2015

Note: Actual official high and low records may vary slightly from our data, if they occured in-between our weather recording intervals... More about our weather records

Advertising

Niterói weather history for previous 24 hours

 ConditionsComfort  
Time TempWeatherWind HumidityBarometerVisibility
5:00 PM
Sat, Feb 28
82 °FPartly sunny.18 mph74%29.89 "HgN/A
4:00 PM84 °FScattered clouds.21 mph74%29.89 "HgN/A
3:00 PM86 °FPartly sunny.23 mph70%29.86 "HgN/A
2:00 PM90 °FScattered clouds.15 mph59%29.89 "HgN/A
1:00 PM93 °FScattered clouds.18 mph56%29.89 "HgN/A
12:00 PM93 °FScattered clouds.14 mph56%29.89 "HgN/A
11:00 AM91 °FPartly sunny.16 mph59%29.89 "HgN/A
10:00 AM88 °FPartly sunny.16 mph66%29.89 "HgN/A
9:00 AM86 °FPartly sunny.1 mph70%29.89 "Hg6 mi
8:00 AM82 °FPartly sunny.8 mph79%29.86 "Hg4 mi
7:00 AM84 °FFog.3 mph79%29.83 "Hg3 mi
6:00 AM77 °FPassing clouds.6 mph89%29.80 "Hg5 mi
11:00 PM
Fri, Feb 27
81 °FClear.1 mph79%29.83 "Hg10 mi
10:00 PM81 °FClear.3 mph74%29.83 "Hg10 mi
9:00 PM79 °FClear.3 mph89%29.80 "Hg10 mi
8:00 PM79 °FClear.7 mph89%29.80 "Hg10 mi
7:00 PM81 °FClear.10 mph79%29.77 "Hg10 mi
6:00 PM82 °FPassing clouds.12 mph79%29.74 "HgN/A
5:00 PM84 °FPassing clouds.17 mph70%29.74 "HgN/A
Weather by CustomWeather, © 2015

See weather overviewHow to use our weather pages